Regional Weather Roundup
Issued by NWS

Home | Current Version | Previous Version | Text Only | Print | Product List | Glossary On
Versions: 1 2 3 4 5 6 7 8 9 10 11 12 13 14 15 16 17 18 19 20 21 22 23 24 25 26 27 28 29 30 31 32 33 34 35 36 37 38 39 40 41 42 43 44 45 46 47 48 49 50
000
ASUS44 KJAN 261410
RWRMS

MISSISSIPPI HOURLY WEATHER ROUNDUP
NATIONAL WEATHER SERVICE JACKSON MS
800 AM CST SUN FEB 26 2017

NOTE: "FAIR: INDICATES FEW OR NO CLOUDS BELOW 12,000 FEET WITH NO
SIGNIFICANT WEATHER AND/OR OBSTRUCTIONS TO VISIBILITY.

MSZ001>002-007>008-010>013-018>021-025>028-034>036-261500-
NORTHWEST MISSISSIPPI

CITY           SKY/WX    TMP DP  RH WIND       PRES   REMARKS
BATESVILLE     FAIR      35  28  76 E5        30.20R WCI  31
CLEVELAND      FAIR      40  28  64 SE9       30.17S WCI  34
GREENWOOD      SUNNY     39  22  50 E15       30.17F WCI  31
GREENVILLE     SUNNY     40  27  59 SE10      30.16S WCI  33
OLIVE BRANCH   MOSUNNY  N/A N/A N/A SE6       30.16S
OXFORD         FAIR      36  21  55 SE9       30.21R WCI  29
TUNICA         SUNNY     36  28  75 E6        30.20R WCI  31
WINONA         FAIR      36  25  63 E3        30.19S
$$

MSZ003>006-009-014>017-022>024-029>033-037>039-261500-
NORTHEAST MISSISSIPPI

CITY           SKY/WX    TMP DP  RH WIND       PRES   REMARKS
COLUMBUS AFB   SUNNY     37  29  74 CALM      30.22R
CORINTH        FAIR      34  28  80 SE6       30.21R WCI  29
GOLDN TRIANGLE SUNNY     37  23  56 E7        30.18R WCI  32
STARKVILLE     FAIR      36  30  80 E3        30.23S
TUPELO         SUNNY     36  25  64 E5        30.22R WCI  32
$$

MSZ040-058-261500-
CENTRAL MISSISSIPPI

CITY           SKY/WX    TMP DP  RH WIND       PRES   REMARKS
JACKSON INTL   SUNNY     41  25  53 E10       30.18S
JACKSON HAWKNS SUNNY     41  25  53 E9        30.18S
MADISON          N/A    N/A N/A N/A E6        30.18S
MERIDIAN KEY   SUNNY     43  26  51 E8        30.22R
MERIDIAN NAS   SUNNY     39  26  59 SE6       30.22R WCI  35
VICKSBURG VKS  SUNNY     43  23  45 E8G16     30.14S
$$

MSZ059>079-261500-
SOUTH MISSISSIPPI

CITY           SKY/WX    TMP DP  RH WIND       PRES   REMARKS
BROOKHAVEN     FAIR     N/A N/A N/A E7        30.19R
HATTIESBURG    SUNNY     41  28  60 VRB5      30.22R
LAUREL         FAIR      41  26  55 E10       30.23R
MCCOMB         SUNNY     41  25  53 E7        30.19R
NATCHEZ        SUNNY     43  25  49 E12G21    30.15S
PINE BELT      SUNNY     39  25  56 E7        30.22S WCI  34
$$

MSZ080>082-261500-
COASTAL MISSISSIPPI

CITY           SKY/WX    TMP DP  RH WIND       PRES   REMARKS
BAY ST LOUIS   SUNNY     45  25  45 MISG      30.20R
BILOXI         SUNNY     46  30  54 NE9       30.20R
PASCAGOULA     SUNNY     46  30  53 NE6       30.21R
GULFPORT       SUNNY     47  30  51 NE10      30.20R
$$

LAZ007>009-015>016-023>026-261500-
NORTHEAST LOUISIANA

CITY           SKY/WX    TMP DP  RH WIND       PRES   REMARKS
BASTROP        FAIR      43  28  56 E7        30.15R
TALLULAH/VBURG SUNNY     42  27  55 SE12      30.18R
VIDALIA        FAIR      43  29  57 E10       30.15S
$$



USA.gov is the U.S. government's official web portal to all federal, state and local government web resources and services.